Time,TemperatureF,DewpointF,PressureIn,WindDirection,WindDirectionDegrees,WindSpeedMPH,WindSpeedGustMPH,Humidity,HourlyPrecipIn,Conditions,Clouds,dailyrainin,SolarRadiationWatts/m^2,SoftwareType,DateUTC
2013-11-05 00:00:00,33.1,27.9,30.14,SE,145,2.0,2.0,81,0.00,,CLR,0.00,0.00,VWS V14.01,2013-11-05 07:00:00,
2013-11-05 00:02:00,33.2,28.0,30.14,West,280,0.0,0.0,81,0.00,,OVC049,0.00,0.00,VWS V14.01,2013-11-05 07:02:00,
2013-11-05 00:07:00,33.0,27.8,30.15,ESE,119,1.0,2.0,81,0.00,,OVC049,0.00,0.00,VWS V14.01,2013-11-05 07:07:00,
2013-11-05 00:12:00,32.7,27.8,30.15,ESE,110,3.0,4.0,82,0.00,,OVC049,0.00,0.00,VWS V14.01,2013-11-05 07:12:00,
2013-11-05 00:17:00,32.6,28.0,30.15,ESE,110,2.0,4.0,83,0.00,,OVC049,0.00,0.00,VWS V14.01,2013-11-05 07:17:00,
2013-11-05 00:22:00,32.4,28.1,30.16,ESE,103,2.0,4.0,84,0.00,,OVC049,0.00,0.00,VWS V14.01,2013-11-05 07:22:00,
2013-11-05 00:27:00,32.3,28.3,30.15,ESE,102,2.0,4.0,85,0.00,,OVC049,0.00,0.00,VWS V14.01,2013-11-05 07:27:00,
2013-11-05 00:30:00,32.0,28.3,30.15,ESE,103,2.0,4.0,86,0.00,,CLR,0.00,0.00,VWS V14.01,2013-11-05 07:30:00,
2013-11-05 00:32:00,32.1,28.4,30.15,ESE,106,2.0,4.0,86,0.00,,OVC033,0.00,0.00,VWS V14.01,2013-11-05 07:32:00,
2013-11-05 00:37:00,31.8,28.4,30.15,ESE,107,2.0,4.0,87,0.00,,OVC033,0.00,0.00,VWS V14.01,2013-11-05 07:37:00,
2013-11-05 00:42:00,31.6,28.5,30.15,ESE,109,1.0,4.0,88,0.00,,OVC033,0.00,0.00,VWS V14.01,2013-11-05 07:42:00,
2013-11-05 00:47:00,31.4,28.5,30.15,ESE,110,1.0,4.0,89,0.00,,OVC033,0.00,0.00,VWS V14.01,2013-11-05 07:47:00,
2013-11-05 00:52:00,31.3,28.7,30.15,ESE,110,0.0,4.0,90,0.00,,OVC033,0.00,0.00,VWS V14.01,2013-11-05 07:52:00,
2013-11-05 00:57:00,31.3,28.7,30.15,ESE,110,0.0,4.0,90,0.00,,OVC033,0.00,0.00,VWS V14.01,2013-11-05 07:57:00,
2013-11-05 01:00:00,31.1,28.8,30.15,ESE,110,1.0,4.0,91,0.00,,CLR,0.00,0.00,VWS V14.01,2013-11-05 08:00:00,
2013-11-05 01:02:00,31.2,28.9,30.15,ESE,110,1.0,4.0,91,0.00,,,0.00,0.00,VWS V14.01,2013-11-05 08:02:00,
2013-11-05 01:07:00,31.1,28.8,30.15,ESE,110,0.0,2.0,91,0.00,,,0.00,0.00,VWS V14.01,2013-11-05 08:07:00,
2013-11-05 01:12:00,31.1,28.8,30.15,ESE,109,2.0,2.0,91,0.00,,,0.00,0.00,VWS V14.01,2013-11-05 08:12:00,
2013-11-05 01:17:00,31.0,28.7,30.15,ESE,109,2.0,2.0,91,0.00,,,0.00,0.00,VWS V14.01,2013-11-05 08:17:00,
2013-11-05 01:22:00,31.0,29.0,30.15,ESE,107,2.0,3.0,92,0.00,,,0.00,0.00,VWS V14.01,2013-11-05 08:22:00,
2013-11-05 01:27:00,31.0,29.0,30.15,ESE,103,1.0,4.0,92,0.00,,,0.00,0.00,VWS V14.01,2013-11-05 08:27:00,
2013-11-05 01:30:00,30.9,28.9,30.15,ESE,102,2.0,4.0,92,0.00,,CLR,0.00,0.00,VWS V14.01,2013-11-05 08:30:00,
2013-11-05 01:32:00,30.9,28.9,30.15,ESE,102,2.0,4.0,92,0.00,,,0.00,0.00,VWS V14.01,2013-11-05 08:32:00,
2013-11-05 01:37:00,30.9,29.1,30.15,ESE,103,1.0,3.0,93,0.00,,,0.00,0.00,VWS V14.01,2013-11-05 08:37:00,
2013-11-05 01:42:00,30.9,29.1,30.15,ESE,103,0.0,3.0,93,0.00,,,0.00,0.00,VWS V14.01,2013-11-05 08:42:00,
2013-11-05 01:47:00,30.9,29.1,30.15,ESE,102,1.0,4.0,93,0.00,,,0.00,0.00,VWS V14.01,2013-11-05 08:47:00,
2013-11-05 01:52:00,30.8,29.0,30.15,ESE,102,0.0,4.0,93,0.00,,,0.00,0.00,VWS V14.01,2013-11-05 08:52:00,
2013-11-05 01:57:00,30.8,29.0,30.15,ESE,102,0.0,4.0,93,0.00,,,0.00,0.00,VWS V14.01,2013-11-05 08:57:00,
2013-11-05 02:00:00,30.8,29.3,30.14,ESE,102,0.0,4.0,94,0.00,,CLR,0.00,0.00,VWS V14.01,2013-11-05 09:00:00,
2013-11-05 02:02:00,30.8,29.0,30.15,ESE,102,0.0,4.0,93,0.00,,,0.00,0.00,VWS V14.01,2013-11-05 09:02:00,
2013-11-05 02:07:00,30.7,29.2,30.15,ESE,102,0.0,2.0,94,0.00,,,0.00,0.00,VWS V14.01,2013-11-05 09:07:00,
2013-11-05 02:12:00,30.7,28.9,30.15,East,101,1.0,3.0,93,0.00,,,0.00,0.00,VWS V14.01,2013-11-05 09:12:00,
2013-11-05 02:17:00,30.7,29.2,30.15,East,99,3.0,3.0,94,0.00,,,0.00,0.00,VWS V14.01,2013-11-05 09:17:00,
2013-11-05 02:22:00,30.5,29.0,30.14,ENE,74,0.0,4.0,94,0.00,,,0.00,0.00,VWS V14.01,2013-11-05 09:22:00,
2013-11-05 02:27:00,30.5,29.0,30.14,ENE,73,1.0,4.0,94,0.00,,,0.00,0.00,VWS V14.01,2013-11-05 09:27:00,
2013-11-05 02:30:00,30.3,28.8,30.14,ENE,74,0.0,6.0,94,0.00,,CLR,0.00,0.00,VWS V14.01,2013-11-05 09:30:00,
2013-11-05 02:32:00,30.4,28.9,30.14,ENE,72,2.0,6.0,94,0.00,,,0.00,0.00,VWS V14.01,2013-11-05 09:32:00,
2013-11-05 02:37:00,30.3,28.8,30.14,East,79,1.0,3.0,94,0.00,,,0.00,0.00,VWS V14.01,2013-11-05 09:37:00,
2013-11-05 02:42:00,30.3,28.8,30.14,East,82,1.0,4.0,94,0.00,,,0.00,0.00,VWS V14.01,2013-11-05 09:42:00,
2013-11-05 02:47:00,30.2,28.7,30.14,ENE,60,2.0,5.0,94,0.00,,,0.00,0.00,VWS V14.01,2013-11-05 09:47:00,
2013-11-05 02:52:00,30.0,28.5,30.13,ENE,71,2.0,5.0,94,0.00,,,0.00,0.00,VWS V14.01,2013-11-05 09:52:00,
2013-11-05 02:57:00,29.9,28.4,30.13,ENE,70,0.0,5.0,94,0.00,,,0.00,0.00,VWS V14.01,2013-11-05 09:57:00,
2013-11-05 03:00:00,29.8,28.3,30.13,ENE,69,1.0,5.0,94,0.00,,CLR,0.00,0.00,VWS V14.01,2013-11-05 10:00:00,
2013-11-05 03:02:00,29.8,28.3,30.13,ENE,70,1.0,5.0,94,0.00,,,0.00,0.00,VWS V14.01,2013-11-05 10:02:00,
2013-11-05 03:07:00,29.9,28.4,30.13,ENE,69,1.0,3.0,94,0.00,,,0.00,0.00,VWS V14.01,2013-11-05 10:07:00,
2013-11-05 03:12:00,29.9,28.4,30.13,ENE,70,1.0,3.0,94,0.00,,,0.00,0.00,VWS V14.01,2013-11-05 10:12:00,
2013-11-05 03:17:00,29.9,28.4,30.14,ENE,70,0.0,3.0,94,0.00,,,0.00,0.00,VWS V14.01,2013-11-05 10:17:00,
2013-11-05 03:22:00,29.9,28.4,30.14,ENE,70,0.0,3.0,94,0.00,,,0.00,0.00,VWS V14.01,2013-11-05 10:22:00,
2013-11-05 03:27:00,30.0,28.5,30.14,ENE,69,1.0,3.0,94,0.00,,,0.00,0.00,VWS V14.01,2013-11-05 10:27:00,
2013-11-05 03:30:00,30.0,28.5,30.14,ENE,69,0.0,3.0,94,0.00,,CLR,0.00,0.00,VWS V14.01,2013-11-05 10:30:00,
2013-11-05 03:32:00,30.0,28.5,30.14,ENE,70,1.0,3.0,94,0.00,,,0.00,0.00,VWS V14.01,2013-11-05 10:32:00,
2013-11-05 03:37:00,29.9,28.4,30.14,ENE,70,2.0,3.0,94,0.00,,,0.00,0.00,VWS V14.01,2013-11-05 10:37:00,
2013-11-05 03:42:00,29.8,28.3,30.14,ENE,69,0.0,4.0,94,0.00,,,0.00,0.00,VWS V14.01,2013-11-05 10:42:00,
2013-11-05 03:47:00,29.8,28.5,30.14,ENE,69,0.0,4.0,95,0.00,,,0.00,0.00,VWS V14.01,2013-11-05 10:47:00,
2013-11-05 03:52:00,29.8,28.5,30.14,ENE,69,0.0,4.0,95,0.00,,,0.00,0.00,VWS V14.01,2013-11-05 10:52:00,
2013-11-05 03:57:00,29.8,28.5,30.15,ENE,69,1.0,4.0,95,0.00,,,0.00,0.00,VWS V14.01,2013-11-05 10:57:00,
2013-11-05 04:00:00,29.8,28.5,30.15,ENE,69,0.0,4.0,95,0.00,,CLR,0.00,0.00,VWS V14.01,2013-11-05 11:00:00,
2013-11-05 04:02:00,29.8,28.5,30.15,ENE,69,1.0,4.0,95,0.00,,,0.00,0.00,VWS V14.01,2013-11-05 11:02:00,
2013-11-05 04:07:00,29.8,28.5,30.15,ENE,69,0.0,2.0,95,0.00,,,0.00,0.00,VWS V14.01,2013-11-05 11:07:00,
2013-11-05 04:12:00,29.9,28.6,30.15,ENE,69,0.0,2.0,95,0.00,,,0.00,0.00,VWS V14.01,2013-11-05 11:12:00,
2013-11-05 04:17:00,29.9,28.6,30.15,ENE,69,0.0,2.0,95,0.00,,,0.00,0.00,VWS V14.01,2013-11-05 11:17:00,
2013-11-05 04:22:00,29.9,28.6,30.16,ENE,69,0.0,3.0,95,0.00,,,0.00,0.00,VWS V14.01,2013-11-05 11:22:00,
2013-11-05 04:27:00,29.9,28.6,30.15,ENE,69,0.0,3.0,95,0.00,,,0.00,0.00,VWS V14.01,2013-11-05 11:27:00,
2013-11-05 04:30:00,29.9,28.6,30.15,ENE,63,3.0,4.0,95,0.00,,CLR,0.00,0.00,VWS V14.01,2013-11-05 11:30:00,
2013-11-05 04:32:00,29.8,28.5,30.15,ENE,69,0.0,3.0,95,0.00,,,0.00,0.00,VWS V14.01,2013-11-05 11:32:00,
2013-11-05 04:37:00,29.8,28.5,30.15,ENE,57,1.0,4.0,95,0.00,,,0.00,0.00,VWS V14.01,2013-11-05 11:37:00,
2013-11-05 04:42:00,29.8,28.5,30.16,ENE,57,0.0,4.0,95,0.00,,,0.00,0.00,VWS V14.01,2013-11-05 11:42:00,
2013-11-05 04:47:00,29.7,28.5,30.16,NE,56,2.0,5.0,95,0.00,,,0.00,0.00,VWS V14.01,2013-11-05 11:47:00,
2013-11-05 04:52:00,29.7,28.5,30.16,NE,56,0.0,5.0,95,0.00,,,0.00,0.00,VWS V14.01,2013-11-05 11:52:00,
2013-11-05 04:57:00,29.7,28.5,30.16,ENE,57,2.0,5.0,95,0.00,,,0.00,0.00,VWS V14.01,2013-11-05 11:57:00,
2013-11-05 05:00:00,29.6,28.4,30.16,ENE,57,0.0,5.0,95,0.00,,CLR,0.00,0.00,VWS V14.01,2013-11-05 12:00:00,
2013-11-05 05:02:00,29.6,28.4,30.16,ENE,57,3.0,5.0,95,0.00,,,0.00,0.00,VWS V14.01,2013-11-05 12:02:00,
2013-11-05 05:07:00,29.5,28.2,30.17,ENE,57,2.0,3.0,95,0.00,,,0.00,0.00,VWS V14.01,2013-11-05 12:07:00,
2013-11-05 05:12:00,29.5,28.2,30.17,ENE,57,4.0,4.0,95,0.00,,,0.00,0.00,VWS V14.01,2013-11-05 12:12:00,
2013-11-05 05:17:00,29.5,28.2,30.17,ENE,58,0.0,5.0,95,0.00,,,0.00,0.00,VWS V14.01,2013-11-05 12:17:00,
2013-11-05 05:22:00,29.5,28.2,30.17,ENE,59,0.0,5.0,95,0.00,,,0.00,0.00,VWS V14.01,2013-11-05 12:22:00,
2013-11-05 05:27:00,29.4,28.1,30.18,ENE,59,3.0,5.0,95,0.00,,,0.00,0.00,VWS V14.01,2013-11-05 12:27:00,
2013-11-05 05:30:00,29.4,28.1,30.18,ENE,59,1.0,5.0,95,0.00,,CLR,0.00,0.00,VWS V14.01,2013-11-05 12:30:00,
2013-11-05 05:32:00,29.4,28.1,30.18,ENE,59,1.0,5.0,95,0.00,,,0.00,0.00,VWS V14.01,2013-11-05 12:32:00,
2013-11-05 05:37:00,29.3,28.0,30.18,ENE,59,3.0,4.0,95,0.00,,,0.00,0.00,VWS V14.01,2013-11-05 12:37:00,
2013-11-05 05:42:00,29.3,28.0,30.18,ENE,57,3.0,4.0,95,0.00,,,0.00,0.00,VWS V14.01,2013-11-05 12:42:00,
2013-11-05 05:47:00,29.2,28.0,30.18,ENE,61,0.0,4.0,95,0.00,,,0.00,0.00,VWS V14.01,2013-11-05 12:47:00,
2013-11-05 05:52:00,29.2,28.0,30.18,ENE,61,1.0,4.0,95,0.00,,,0.00,0.00,VWS V14.01,2013-11-05 12:52:00,
2013-11-05 05:57:00,29.2,28.0,30.18,ENE,61,1.0,4.0,95,0.00,,,0.00,0.00,VWS V14.01,2013-11-05 12:57:00,
2013-11-05 06:00:00,29.1,27.9,30.19,ENE,60,1.0,4.0,95,0.00,,CLR,0.00,0.00,VWS V14.01,2013-11-05 13:00:00,
2013-11-05 06:02:00,29.1,27.9,30.18,ENE,60,1.0,4.0,95,0.00,,,0.00,0.00,VWS V14.01,2013-11-05 13:02:00,
2013-11-05 06:07:00,29.2,28.0,30.19,ENE,61,0.0,2.0,95,0.00,,,0.00,0.00,VWS V14.01,2013-11-05 13:07:00,
2013-11-05 06:12:00,29.2,28.0,30.20,ENE,60,0.0,2.0,95,0.00,,,0.00,0.00,VWS V14.01,2013-11-05 13:12:00,
2013-11-05 06:17:00,29.2,28.0,30.20,ENE,60,0.0,2.0,95,0.00,,,0.00,0.00,VWS V14.01,2013-11-05 13:17:00,
2013-11-05 06:22:00,29.1,27.9,30.20,ENE,61,3.0,5.0,95,0.00,,,0.00,0.00,VWS V14.01,2013-11-05 13:22:00,
2013-11-05 06:27:00,29.1,27.9,30.20,ENE,61,2.0,5.0,95,0.00,,,0.00,0.00,VWS V14.01,2013-11-05 13:27:00,
2013-11-05 06:30:00,29.0,27.8,30.20,ENE,63,3.0,6.0,95,0.00,,CLR,0.00,0.00,VWS V14.01,2013-11-05 13:30:00,
2013-11-05 06:32:00,29.0,27.8,30.20,ENE,60,1.0,6.0,95,0.00,,,0.00,0.00,VWS V14.01,2013-11-05 13:32:00,
2013-11-05 06:37:00,29.0,27.8,30.20,ENE,65,4.0,6.0,95,0.00,,,0.00,0.00,VWS V14.01,2013-11-05 13:37:00,
2013-11-05 06:42:00,28.9,27.6,30.20,ENE,65,1.0,6.0,95,0.00,,,0.00,0.00,VWS V14.01,2013-11-05 13:42:00,
2013-11-05 06:47:00,28.9,27.6,30.20,ENE,65,2.0,6.0,95,0.00,,,0.00,0.00,VWS V14.01,2013-11-05 13:47:00,
2013-11-05 06:52:00,28.8,27.5,30.20,ENE,67,2.0,6.0,95,0.00,,,0.00,0.00,VWS V14.01,2013-11-05 13:52:00,
2013-11-05 06:57:00,28.7,27.5,30.20,ENE,67,2.0,6.0,95,0.00,,,0.00,0.00,VWS V14.01,2013-11-05 13:57:00,
2013-11-05 07:00:00,28.7,27.5,30.21,ENE,67,2.0,6.0,95,0.00,,CLR,0.00,7.00,VWS V14.01,2013-11-05 14:00:00,
2013-11-05 07:02:00,28.7,27.5,30.21,ENE,67,1.0,6.0,95,0.00,,,0.00,7.00,VWS V14.01,2013-11-05 14:02:00,
2013-11-05 07:07:00,28.7,27.5,30.21,ENE,67,2.0,3.0,95,0.00,,,0.00,9.00,VWS V14.01,2013-11-05 14:07:00,
2013-11-05 07:12:00,28.7,27.5,30.22,ENE,65,2.0,5.0,95,0.00,,,0.00,12.00,VWS V14.01,2013-11-05 14:12:00,
2013-11-05 07:17:00,28.8,27.5,30.22,ENE,57,4.0,7.0,95,0.00,,,0.00,14.00,VWS V14.01,2013-11-05 14:17:00,
2013-11-05 07:22:00,28.6,27.4,30.22,ENE,57,3.0,7.0,95,0.00,,,0.00,18.00,VWS V14.01,2013-11-05 14:22:00,
2013-11-05 07:27:00,28.6,27.4,30.22,ENE,59,1.0,7.0,95,0.00,,,0.00,19.00,VWS V14.01,2013-11-05 14:27:00,
2013-11-05 07:30:00,28.7,27.5,30.22,NE,48,2.0,7.0,95,0.00,,CLR,0.00,23.00,VWS V14.01,2013-11-05 14:30:00,
2013-11-05 07:32:00,28.7,27.5,30.22,ENE,58,4.0,7.0,95,0.00,,,0.00,21.00,VWS V14.01,2013-11-05 14:32:00,
2013-11-05 07:37:00,28.7,27.5,30.22,NE,52,2.0,5.0,95,0.00,,,0.00,25.00,VWS V14.01,2013-11-05 14:37:00,
2013-11-05 07:42:00,28.6,27.4,30.23,NE,53,3.0,5.0,95,0.00,,,0.00,32.00,VWS V14.01,2013-11-05 14:42:00,
2013-11-05 07:47:00,28.7,27.5,30.23,NE,54,2.0,5.0,95,0.00,,,0.00,39.00,VWS V14.01,2013-11-05 14:47:00,
2013-11-05 07:52:00,28.6,27.4,30.23,ENE,57,6.0,6.0,95,0.00,,,0.00,40.00,VWS V14.01,2013-11-05 14:52:00,
2013-11-05 07:57:00,28.6,27.4,30.23,ENE,61,2.0,7.0,95,0.00,,,0.00,40.00,VWS V14.01,2013-11-05 14:57:00,
2013-11-05 08:00:00,28.6,27.4,30.24,ENE,57,3.0,7.0,95,0.00,,CLR,0.00,42.00,VWS V14.01,2013-11-05 15:00:00,
2013-11-05 08:02:00,28.6,27.4,30.24,ENE,60,3.0,7.0,95,0.00,,,0.00,39.00,VWS V14.01,2013-11-05 15:02:00,
2013-11-05 08:07:00,28.6,27.4,30.24,ENE,59,4.0,5.0,95,0.00,,,0.00,47.00,VWS V14.01,2013-11-05 15:07:00,
2013-11-05 08:12:00,28.6,27.4,30.24,NE,55,2.0,5.0,95,0.00,,,0.00,60.00,VWS V14.01,2013-11-05 15:12:00,
2013-11-05 08:17:00,28.7,27.5,30.24,ENE,59,3.0,6.0,95,0.00,,,0.00,60.00,VWS V14.01,2013-11-05 15:17:00,
2013-11-05 08:22:00,28.7,27.5,30.24,NE,56,3.0,6.0,95,0.00,,,0.00,67.00,VWS V14.01,2013-11-05 15:22:00,
2013-11-05 08:27:00,28.7,27.5,30.24,ENE,59,5.0,6.0,95,0.00,,,0.00,79.00,VWS V14.01,2013-11-05 15:27:00,
2013-11-05 08:30:00,28.8,27.5,30.24,ENE,57,2.0,6.0,95,0.00,,CLR,0.00,83.00,VWS V14.01,2013-11-05 15:30:00,
2013-11-05 08:32:00,28.8,27.5,30.24,NE,55,0.0,6.0,95,0.00,,,0.00,88.00,VWS V14.01,2013-11-05 15:32:00,
2013-11-05 08:37:00,28.8,27.5,30.24,ENE,58,0.0,3.0,95,0.00,,,0.00,83.00,VWS V14.01,2013-11-05 15:37:00,
2013-11-05 08:42:00,28.9,27.6,30.25,ENE,58,2.0,4.0,95,0.00,,,0.00,81.00,VWS V14.01,2013-11-05 15:42:00,
2013-11-05 08:47:00,28.9,27.6,30.25,NE,53,4.0,5.0,95,0.00,,,0.00,84.00,VWS V14.01,2013-11-05 15:47:00,
2013-11-05 08:52:00,28.9,27.6,30.24,NE,44,2.0,6.0,95,0.00,,,0.00,93.00,VWS V14.01,2013-11-05 15:52:00,
2013-11-05 08:57:00,28.9,27.6,30.24,NE,46,4.0,6.0,95,0.00,,,0.00,100.00,VWS V14.01,2013-11-05 15:57:00,
2013-11-05 09:00:00,29.0,28.0,30.24,NE,51,5.0,6.0,96,0.00,,CLR,0.00,98.00,VWS V14.01,2013-11-05 16:00:00,
2013-11-05 09:02:00,28.9,27.6,30.24,NE,53,3.0,6.0,95,0.00,,,0.00,100.00,VWS V14.01,2013-11-05 16:02:00,
2013-11-05 09:07:00,29.0,27.8,30.24,NE,48,5.0,6.0,95,0.00,,,0.00,104.00,VWS V14.01,2013-11-05 16:07:00,
2013-11-05 09:12:00,28.7,27.5,30.25,NE,55,6.0,8.0,95,0.00,,,0.00,111.00,VWS V14.01,2013-11-05 16:12:00,
2013-11-05 09:17:00,28.7,27.5,30.24,ENE,61,7.0,9.0,95,0.00,,,0.00,128.00,VWS V14.01,2013-11-05 16:17:00,
2013-11-05 09:22:00,28.7,27.5,30.24,ENE,67,3.0,9.0,95,0.00,,,0.00,137.00,VWS V14.01,2013-11-05 16:22:00,
2013-11-05 09:27:00,28.9,27.6,30.25,ENE,63,2.0,9.0,95,0.00,,,0.00,141.00,VWS V14.01,2013-11-05 16:27:00,
2013-11-05 09:30:00,28.9,27.6,30.24,ENE,65,4.0,9.0,95,0.00,,CLR,0.00,149.00,VWS V14.01,2013-11-05 16:30:00,
2013-11-05 09:32:00,28.9,27.9,30.24,ENE,63,4.0,9.0,96,0.00,,,0.00,142.00,VWS V14.01,2013-11-05 16:32:00,
2013-11-05 09:37:00,29.0,27.8,30.24,ENE,67,5.0,5.0,95,0.00,,,0.00,149.00,VWS V14.01,2013-11-05 16:37:00,
2013-11-05 09:42:00,29.0,28.0,30.25,ENE,65,2.0,5.0,96,0.00,,,0.00,135.00,VWS V14.01,2013-11-05 16:42:00,
2013-11-05 09:47:00,29.1,28.1,30.25,ENE,65,3.0,5.0,96,0.00,,,0.00,139.00,VWS V14.01,2013-11-05 16:47:00,
2013-11-05 09:52:00,29.0,28.0,30.25,NE,53,7.0,10.0,96,0.00,,,0.00,153.00,VWS V14.01,2013-11-05 16:52:00,
2013-11-05 09:57:00,28.8,27.5,30.25,ENE,65,7.0,10.0,95,0.00,,,0.00,165.00,VWS V14.01,2013-11-05 16:57:00,
2013-11-05 10:00:00,28.7,27.5,30.25,ENE,58,7.0,10.0,95,0.00,,CLR,0.00,171.00,VWS V14.01,2013-11-05 17:00:00,
2013-11-05 10:02:00,28.7,27.5,30.25,ENE,63,4.0,10.0,95,0.00,,,0.00,167.00,VWS V14.01,2013-11-05 17:02:00,
2013-11-05 10:07:00,28.7,27.5,30.25,ENE,60,6.0,7.0,95,0.00,,,0.00,174.00,VWS V14.01,2013-11-05 17:07:00,
2013-11-05 10:12:00,28.7,27.5,30.25,ENE,70,4.0,9.0,95,0.00,,,0.00,192.00,VWS V14.01,2013-11-05 17:12:00,
2013-11-05 10:17:00,28.8,27.5,30.25,ENE,71,5.0,9.0,95,0.00,,,0.00,202.00,VWS V14.01,2013-11-05 17:17:00,
2013-11-05 10:22:00,28.9,27.6,30.25,ENE,75,4.0,9.0,95,0.00,,,0.00,209.00,VWS V14.01,2013-11-05 17:22:00,
2013-11-05 10:27:00,29.1,28.1,30.25,ENE,69,4.0,9.0,96,0.00,,,0.00,223.00,VWS V14.01,2013-11-05 17:27:00,
2013-11-05 10:30:00,29.0,28.0,30.25,ENE,59,4.0,9.0,96,0.00,,CLR,0.00,239.00,VWS V14.01,2013-11-05 17:30:00,
2013-11-05 10:32:00,29.0,28.0,30.25,ENE,69,3.0,9.0,96,0.00,,,0.00,230.00,VWS V14.01,2013-11-05 17:32:00,
2013-11-05 10:37:00,28.9,27.6,30.25,ENE,60,5.0,6.0,95,0.00,,,0.00,264.00,VWS V14.01,2013-11-05 17:37:00,
2013-11-05 10:42:00,28.8,27.5,30.25,ENE,61,3.0,8.0,95,0.00,,,0.00,288.00,VWS V14.01,2013-11-05 17:42:00,
2013-11-05 10:47:00,28.8,27.5,30.25,ENE,67,4.0,8.0,95,0.01,,,0.01,315.00,VWS V14.01,2013-11-05 17:47:00,
2013-11-05 10:52:00,28.9,27.6,30.25,ENE,65,4.0,8.0,95,0.01,,,0.01,250.00,VWS V14.01,2013-11-05 17:52:00,
2013-11-05 10:57:00,29.1,28.1,30.24,ENE,69,1.0,8.0,96,0.01,,,0.01,306.00,VWS V14.01,2013-11-05 17:57:00,
2013-11-05 11:00:00,29.1,28.1,30.24,ENE,63,5.0,8.0,96,0.01,,CLR,0.01,339.00,VWS V14.01,2013-11-05 18:00:00,
2013-11-05 11:02:00,29.2,28.2,30.24,ENE,59,7.0,8.0,96,0.01,,,0.01,352.00,VWS V14.01,2013-11-05 18:02:00,
2013-11-05 11:07:00,29.1,28.1,30.24,ENE,74,6.0,7.0,96,0.01,,,0.01,371.00,VWS V14.01,2013-11-05 18:07:00,
2013-11-05 11:12:00,29.2,28.2,30.24,ENE,68,5.0,7.0,96,0.01,,,0.01,446.00,VWS V14.01,2013-11-05 18:12:00,
2013-11-05 11:17:00,29.3,28.3,30.24,ENE,78,4.0,7.0,96,0.01,,,0.01,281.00,VWS V14.01,2013-11-05 18:17:00,
2013-11-05 11:22:00,29.3,28.0,30.24,East,80,5.0,7.0,95,0.01,,,0.01,457.00,VWS V14.01,2013-11-05 18:22:00,
2013-11-05 11:27:00,29.4,28.1,30.24,East,84,3.0,7.0,95,0.01,,,0.01,517.00,VWS V14.01,2013-11-05 18:27:00,
2013-11-05 11:30:00,29.4,28.4,30.23,ENE,68,5.0,8.0,96,0.01,,CLR,0.01,309.00,VWS V14.01,2013-11-05 18:30:00,
2013-11-05 11:32:00,29.5,28.2,30.24,ENE,68,4.0,8.0,95,0.01,,,0.01,325.00,VWS V14.01,2013-11-05 18:32:00,
2013-11-05 11:37:00,29.3,28.0,30.23,ENE,73,6.0,7.0,95,0.01,,,0.01,366.00,VWS V14.01,2013-11-05 18:37:00,
2013-11-05 11:42:00,29.2,28.0,30.23,ENE,75,3.0,7.0,95,0.02,,,0.02,316.00,VWS V14.01,2013-11-05 18:42:00,
2013-11-05 11:47:00,29.4,28.4,30.23,ENE,72,5.0,7.0,96,0.02,,,0.02,645.00,VWS V14.01,2013-11-05 18:47:00,
2013-11-05 11:52:00,29.5,28.5,30.23,East,82,4.0,7.0,96,0.02,,,0.02,489.00,VWS V14.01,2013-11-05 18:52:00,
2013-11-05 11:57:00,29.7,28.7,30.23,East,91,3.0,7.0,96,0.03,,,0.03,427.00,VWS V14.01,2013-11-05 18:57:00,
2013-11-05 12:00:00,29.5,28.2,30.23,East,93,4.0,7.0,95,0.03,,CLR,0.03,357.00,VWS V14.01,2013-11-05 19:00:00,
2013-11-05 12:02:00,29.6,28.4,30.23,East,86,2.0,7.0,95,0.03,,,0.03,359.00,VWS V14.01,2013-11-05 19:02:00,
2013-11-05 12:07:00,29.4,28.1,30.23,East,94,3.0,6.0,95,0.02,,,0.03,352.00,VWS V14.01,2013-11-05 19:07:00,
2013-11-05 12:11:00,29.3,28.0,30.23,East,94,3.0,6.0,95,0.02,,,0.03,338.00,VWS V14.01,2013-11-05 19:11:00,
2013-11-05 12:16:00,29.2,28.0,30.23,East,96,4.0,6.0,95,0.03,,,0.04,369.00,VWS V14.01,2013-11-05 19:16:00,
2013-11-05 12:22:00,29.4,28.1,30.23,East,98,5.0,6.0,95,0.03,,,0.04,461.00,VWS V14.01,2013-11-05 19:22:00,
2013-11-05 12:27:00,29.4,28.1,30.22,East,96,5.0,6.0,95,0.04,,,0.05,353.00,VWS V14.01,2013-11-05 19:27:00,
2013-11-05 12:30:00,29.9,28.6,30.22,East,94,2.0,6.0,95,0.04,,CLR,0.05,350.00,VWS V14.01,2013-11-05 19:30:00,
2013-11-05 12:32:00,29.7,28.5,30.22,East,94,1.0,6.0,95,0.04,,,0.05,338.00,VWS V14.01,2013-11-05 19:32:00,
2013-11-05 12:37:00,30.0,28.7,30.22,East,94,1.0,2.0,95,0.04,,,0.05,359.00,VWS V14.01,2013-11-05 19:37:00,
2013-11-05 12:41:00,30.1,28.8,30.22,East,94,2.0,3.0,95,0.05,,,0.06,288.00,VWS V14.01,2013-11-05 19:41:00,
2013-11-05 12:46:00,29.9,28.6,30.22,East,94,1.0,3.0,95,0.05,,,0.06,248.00,VWS V14.01,2013-11-05 19:46:00,
2013-11-05 12:51:00,29.8,28.5,30.22,East,94,2.0,3.0,95,0.05,,,0.06,218.00,VWS V14.01,2013-11-05 19:51:00,
2013-11-05 12:56:00,29.7,28.5,30.22,East,94,0.0,3.0,95,0.05,,,0.06,202.00,VWS V14.01,2013-11-05 19:56:00,
2013-11-05 13:00:00,29.6,28.4,30.21,East,94,0.0,3.0,95,0.05,,CLR,0.06,211.00,VWS V14.01,2013-11-05 20:00:00,
2013-11-05 13:01:00,29.5,28.2,30.22,East,94,0.0,3.0,95,0.05,,,0.06,206.00,VWS V14.01,2013-11-05 20:01:00,
2013-11-05 13:06:00,29.6,28.4,30.22,East,94,0.0,0.0,95,0.03,,,0.06,214.00,VWS V14.01,2013-11-05 20:06:00,
2013-11-05 13:11:00,29.7,28.5,30.21,East,94,0.0,1.0,95,0.03,,,0.06,221.00,VWS V14.01,2013-11-05 20:11:00,
2013-11-05 13:16:00,29.9,28.6,30.21,East,94,0.0,1.0,95,0.04,,,0.07,229.00,VWS V14.01,2013-11-05 20:16:00,
2013-11-05 13:21:00,29.9,28.6,30.21,East,94,2.0,3.0,95,0.04,,,0.07,237.00,VWS V14.01,2013-11-05 20:21:00,
2013-11-05 13:26:00,29.8,28.5,30.21,East,93,0.0,3.0,95,0.04,,,0.07,207.00,VWS V14.01,2013-11-05 20:26:00,
2013-11-05 13:30:00,29.8,28.3,30.21,East,93,0.0,3.0,94,0.05,,CLR,0.08,185.00,VWS V14.01,2013-11-05 20:30:00,
2013-11-05 13:31:00,29.7,28.2,30.21,East,93,2.0,3.0,94,0.04,,,0.07,181.00,VWS V14.01,2013-11-05 20:31:00,
2013-11-05 13:36:00,29.8,28.3,30.21,East,93,0.0,2.0,94,0.03,,,0.08,193.00,VWS V14.01,2013-11-05 20:36:00,
2013-11-05 13:41:00,29.8,28.3,30.21,East,91,1.0,4.0,94,0.03,,,0.08,206.00,VWS V14.01,2013-11-05 20:41:00,
2013-11-05 13:46:00,29.7,28.2,30.21,ENE,78,2.0,5.0,94,0.04,,,0.09,195.00,VWS V14.01,2013-11-05 20:46:00,
2013-11-05 13:51:00,29.6,28.1,30.21,East,86,3.0,5.0,94,0.04,,,0.09,139.00,VWS V14.01,2013-11-05 20:51:00,
2013-11-05 13:56:00,29.6,28.1,30.21,East,84,3.0,5.0,94,0.04,,,0.09,148.00,VWS V14.01,2013-11-05 20:56:00,
2013-11-05 14:00:00,29.4,27.9,30.21,East,84,4.0,6.0,94,0.04,,CLR,0.09,155.00,VWS V14.01,2013-11-05 21:00:00,
2013-11-05 14:01:00,29.4,27.9,30.21,East,92,4.0,6.0,94,0.04,,OVC010,0.09,141.00,VWS V14.01,2013-11-05 21:01:00,
2013-11-05 14:06:00,29.3,27.8,30.22,East,80,2.0,4.0,94,0.03,,OVC010,0.09,179.00,VWS V14.01,2013-11-05 21:06:00,
2013-11-05 14:11:00,29.4,27.9,30.22,East,84,2.0,4.0,94,0.03,,OVC010,0.09,211.00,VWS V14.01,2013-11-05 21:11:00,
2013-11-05 14:16:00,29.4,27.9,30.22,East,88,2.0,5.0,94,0.03,,OVC010,0.09,209.00,VWS V14.01,2013-11-05 21:16:00,
2013-11-05 14:21:00,29.4,27.9,30.22,East,88,3.0,5.0,94,0.04,,OVC010,0.10,243.00,VWS V14.01,2013-11-05 21:21:00,
2013-11-05 14:26:00,29.5,28.0,30.22,East,87,4.0,5.0,94,0.04,,OVC010,0.10,193.00,VWS V14.01,2013-11-05 21:26:00,
2013-11-05 14:30:00,29.5,28.0,30.22,East,87,0.0,5.0,94,0.04,,CLR,0.10,171.00,VWS V14.01,2013-11-05 21:30:00,
2013-11-05 14:31:00,29.5,28.0,30.22,East,87,1.0,5.0,94,0.04,,OVC011,0.10,163.00,VWS V14.01,2013-11-05 21:31:00,
2013-11-05 14:36:00,29.5,28.0,30.22,East,86,0.0,3.0,94,0.02,,OVC011,0.10,169.00,VWS V14.01,2013-11-05 21:36:00,
2013-11-05 14:41:00,29.7,28.2,30.21,East,86,0.0,3.0,94,0.02,,OVC011,0.10,156.00,VWS V14.01,2013-11-05 21:41:00,
2013-11-05 14:46:00,29.6,28.1,30.22,ESE,109,2.0,3.0,94,0.03,,OVC011,0.11,151.00,VWS V14.01,2013-11-05 21:46:00,
2013-11-05 14:51:00,29.5,28.0,30.22,SSE,148,1.0,4.0,94,0.03,,OVC011,0.11,137.00,VWS V14.01,2013-11-05 21:51:00,
2013-11-05 14:56:00,29.5,27.7,30.21,SE,143,3.0,5.0,93,0.03,,OVC011,0.11,116.00,VWS V14.01,2013-11-05 21:56:00,
2013-11-05 15:00:00,29.4,27.6,30.22,SSE,162,3.0,7.0,93,0.03,,CLR,0.11,100.00,VWS V14.01,2013-11-05 22:00:00,
2013-11-05 15:01:00,29.3,27.5,30.22,SE,136,4.0,7.0,93,0.03,,OVC012,0.11,104.00,VWS V14.01,2013-11-05 22:01:00,
2013-11-05 15:06:00,29.5,27.5,30.22,South,174,3.0,5.0,92,0.02,,OVC012,0.11,102.00,VWS V14.01,2013-11-05 22:06:00,
2013-11-05 15:11:00,29.7,27.7,30.21,South,169,2.0,5.0,92,0.02,,OVC012,0.11,102.00,VWS V14.01,2013-11-05 22:11:00,
2013-11-05 15:16:00,29.8,27.5,30.21,SSE,163,2.0,5.0,91,0.02,,OVC012,0.11,111.00,VWS V14.01,2013-11-05 22:16:00,
2013-11-05 15:21:00,29.8,27.5,30.21,South,171,1.0,5.0,91,0.02,,OVC012,0.11,93.00,VWS V14.01,2013-11-05 22:21:00,
2013-11-05 15:26:00,29.7,27.1,30.21,SSE,160,3.0,6.0,90,0.02,,OVC012,0.11,97.00,VWS V14.01,2013-11-05 22:26:00,
2013-11-05 15:30:00,29.7,27.1,30.21,SSE,150,7.0,7.0,90,0.02,,CLR,0.11,90.00,VWS V14.01,2013-11-05 22:30:00,
2013-11-05 15:31:00,29.6,27.0,30.21,SSE,158,2.0,6.0,90,0.02,,OVC012,0.11,90.00,VWS V14.01,2013-11-05 22:31:00,
2013-11-05 15:36:00,29.6,27.0,30.21,SSE,157,2.0,7.0,90,0.01,,OVC012,0.11,90.00,VWS V14.01,2013-11-05 22:36:00,
2013-11-05 15:41:00,30.0,27.4,30.21,SSE,166,3.0,7.0,90,0.01,,OVC012,0.11,165.00,VWS V14.01,2013-11-05 22:41:00,
2013-11-05 15:46:00,30.2,27.4,30.21,South,191,5.0,7.0,89,0.01,,OVC012,0.11,171.00,VWS V14.01,2013-11-05 22:46:00,
2013-11-05 15:51:00,30.0,26.9,30.21,South,174,2.0,7.0,88,0.01,,OVC012,0.11,67.00,VWS V14.01,2013-11-05 22:51:00,
2013-11-05 15:56:00,29.6,26.8,30.22,South,181,2.0,9.0,89,0.01,,OVC012,0.11,37.00,VWS V14.01,2013-11-05 22:56:00,
2013-11-05 16:00:00,29.3,26.5,30.22,South,178,4.0,9.0,89,0.01,,CLR,0.11,18.00,VWS V14.01,2013-11-05 23:00:00,
2013-11-05 16:01:00,29.4,26.6,30.22,South,175,3.0,9.0,89,0.01,,OVC046,0.11,39.00,VWS V14.01,2013-11-05 23:01:00,
2013-11-05 16:06:00,29.2,26.4,30.22,South,175,1.0,4.0,89,0.00,,OVC046,0.11,18.00,VWS V14.01,2013-11-05 23:06:00,
2013-11-05 16:11:00,29.0,26.2,30.22,South,171,0.0,4.0,89,0.00,,OVC046,0.11,26.00,VWS V14.01,2013-11-05 23:11:00,
2013-11-05 16:16:00,28.9,26.3,30.22,South,171,0.0,4.0,90,0.00,,OVC046,0.11,16.00,VWS V14.01,2013-11-05 23:16:00,
2013-11-05 16:21:00,28.7,26.1,30.22,South,171,0.0,4.0,90,0.00,,OVC046,0.11,11.00,VWS V14.01,2013-11-05 23:21:00,
2013-11-05 16:26:00,28.5,26.0,30.22,South,171,0.0,4.0,90,0.00,,OVC046,0.11,9.00,VWS V14.01,2013-11-05 23:26:00,
2013-11-05 16:30:00,28.1,25.5,30.22,South,171,0.0,4.0,90,0.00,,CLR,0.11,5.00,VWS V14.01,2013-11-05 23:30:00,
2013-11-05 16:31:00,28.2,25.6,30.22,South,171,0.0,4.0,90,0.00,,OVC046,0.11,7.00,VWS V14.01,2013-11-05 23:31:00,
2013-11-05 16:36:00,28.0,25.5,30.22,South,171,0.0,0.0,90,0.00,,OVC046,0.11,5.00,VWS V14.01,2013-11-05 23:36:00,
2013-11-05 16:41:00,27.5,25.0,30.22,South,169,0.0,3.0,90,0.00,,OVC046,0.11,0.00,VWS V14.01,2013-11-05 23:41:00,
2013-11-05 16:46:00,27.2,24.7,30.23,South,172,4.0,4.0,90,0.00,,OVC046,0.11,0.00,VWS V14.01,2013-11-05 23:46:00,
2013-11-05 16:51:00,27.1,24.6,30.22,South,188,2.0,7.0,90,0.00,,OVC046,0.11,0.00,VWS V14.01,2013-11-05 23:51:00,
2013-11-05 16:56:00,27.2,24.7,30.22,SSW,196,5.0,10.0,90,0.00,,OVC046,0.11,0.00,VWS V14.01,2013-11-05 23:56:00,
2013-11-05 17:00:00,27.2,24.7,30.22,South,176,2.0,11.0,90,0.00,,CLR,0.11,0.00,VWS V14.01,2013-11-06 00:00:00,
2013-11-05 17:01:00,27.3,24.8,30.22,South,179,2.0,11.0,90,0.00,,CLR,0.11,0.00,VWS V14.01,2013-11-06 00:01:00,
2013-11-05 17:06:00,27.1,24.6,30.22,South,173,3.0,10.0,90,0.00,,CLR,0.11,0.00,VWS V14.01,2013-11-06 00:06:00,
2013-11-05 17:11:00,26.9,24.4,30.22,SSW,196,1.0,10.0,90,0.00,,CLR,0.11,0.00,VWS V14.01,2013-11-06 00:11:00,
2013-11-05 17:16:00,26.7,24.2,30.23,South,187,5.0,10.0,90,0.00,,CLR,0.11,0.00,VWS V14.01,2013-11-06 00:16:00,
2013-11-05 17:21:00,26.6,24.3,30.23,SSW,192,3.0,11.0,91,0.00,,CLR,0.11,0.00,VWS V14.01,2013-11-06 00:21:00,
2013-11-05 17:26:00,26.5,24.2,30.23,South,186,5.0,11.0,91,0.00,,CLR,0.11,0.00,VWS V14.01,2013-11-06 00:26:00,
2013-11-05 17:30:00,26.1,23.8,30.23,South,181,4.0,11.0,91,0.00,,CLR,0.11,0.00,VWS V14.01,2013-11-06 00:30:00,
2013-11-05 17:31:00,26.2,23.9,30.23,SSW,201,5.0,11.0,91,0.00,,CLR,0.11,0.00,VWS V14.01,2013-11-06 00:31:00,
2013-11-05 17:36:00,26.1,23.8,30.23,South,188,3.0,10.0,91,0.00,,CLR,0.11,0.00,VWS V14.01,2013-11-06 00:36:00,
2013-11-05 18:00:00,26.0,24.0,30.23,South,180,7.0,15.0,92,0.00,,CLR,0.11,0.00,VWS V14.01,2013-11-06 01:00:00,
2013-11-05 18:30:00,25.3,23.3,30.23,South,180,8.0,16.0,92,0.00,,CLR,0.11,0.00,VWS V14.01,2013-11-06 01:30:00,
2013-11-05 19:22:00,25.4,23.4,30.22,SSW,195,12.0,12.0,92,0.00,,CLR,0.11,0.00,VWS V14.01,2013-11-06 02:22:00,
2013-11-05 19:27:00,25.1,23.1,30.22,South,183,11.0,15.0,92,0.00,,CLR,0.11,0.00,VWS V14.01,2013-11-06 02:27:00,
2013-11-05 19:30:00,24.9,22.9,30.22,South,184,6.0,16.0,92,0.00,,OVC041,0.11,0.00,VWS V14.01,2013-11-06 02:30:00,
2013-11-05 19:32:00,24.9,22.9,30.22,South,186,7.0,16.0,92,0.00,,CLR,0.11,0.00,VWS V14.01,2013-11-06 02:32:00,
2013-11-05 19:37:00,24.9,22.9,30.22,South,186,10.0,14.0,92,0.00,,CLR,0.11,0.00,VWS V14.01,2013-11-06 02:37:00,
2013-11-05 19:42:00,25.0,23.3,30.22,SSW,211,11.0,18.0,93,0.00,,CLR,0.11,0.00,VWS V14.01,2013-11-06 02:42:00,
2013-11-05 19:47:00,25.1,23.4,30.22,South,178,10.0,18.0,93,0.00,,CLR,0.11,0.00,VWS V14.01,2013-11-06 02:47:00,
2013-11-05 19:52:00,25.2,23.5,30.21,SSE,156,14.0,18.0,93,0.00,,CLR,0.11,0.00,VWS V14.01,2013-11-06 02:52:00,
2013-11-05 19:57:00,25.3,23.6,30.21,South,174,12.0,18.0,93,0.00,,CLR,0.11,0.00,VWS V14.01,2013-11-06 02:57:00,
2013-11-05 20:00:00,25.1,23.4,30.21,SSW,198,4.0,18.0,93,0.00,,OVC041,0.11,0.00,VWS V14.01,2013-11-06 03:00:00,
2013-11-05 20:02:00,25.2,23.5,30.21,SSE,164,9.0,18.0,93,0.00,,CLR,0.11,0.00,VWS V14.01,2013-11-06 03:02:00,
2013-11-05 20:07:00,25.0,23.3,30.21,South,187,4.0,12.0,93,0.00,,CLR,0.11,0.00,VWS V14.01,2013-11-06 03:07:00,
2013-11-05 20:12:00,24.6,22.9,30.22,SSW,204,4.0,12.0,93,0.00,,CLR,0.11,0.00,VWS V14.01,2013-11-06 03:12:00,
2013-11-05 20:17:00,24.5,22.8,30.22,NNW,344,0.0,12.0,93,0.00,,CLR,0.11,0.00,VWS V14.01,2013-11-06 03:17:00,
2013-11-05 20:22:00,24.2,22.5,30.22,ENE,71,0.0,12.0,93,0.00,,CLR,0.11,0.00,VWS V14.01,2013-11-06 03:22:00,
2013-11-05 20:27:00,24.4,22.7,30.22,SE,141,6.0,12.0,93,0.00,,CLR,0.11,0.00,VWS V14.01,2013-11-06 03:27:00,
2013-11-05 20:30:00,24.4,22.7,30.23,South,188,8.0,12.0,93,0.00,,OVC041,0.11,0.00,VWS V14.01,2013-11-06 03:30:00,
2013-11-05 20:32:00,24.3,22.6,30.23,SSW,197,5.0,12.0,93,0.00,,,0.11,0.00,VWS V14.01,2013-11-06 03:32:00,
2013-11-05 20:37:00,24.3,22.6,30.23,SSW,206,5.0,9.0,93,0.00,,,0.11,0.00,VWS V14.01,2013-11-06 03:37:00,
2013-11-05 20:42:00,24.2,22.5,30.23,SSE,154,7.0,11.0,93,0.00,,,0.11,0.00,VWS V14.01,2013-11-06 03:42:00,
2013-11-05 20:47:00,24.3,22.6,30.23,SSE,161,0.0,12.0,93,0.00,,,0.11,0.00,VWS V14.01,2013-11-06 03:47:00,
2013-11-05 20:52:00,24.2,22.5,30.23,SW,220,0.0,12.0,93,0.00,,,0.11,0.00,VWS V14.01,2013-11-06 03:52:00,
2013-11-05 20:57:00,24.0,22.3,30.23,SSE,153,0.0,12.0,93,0.00,,,0.11,0.00,VWS V14.01,2013-11-06 03:57:00,
2013-11-05 21:00:00,24.0,22.5,30.23,SW,222,1.0,12.0,94,0.00,,OVC041,0.11,0.00,VWS V14.01,2013-11-06 04:00:00,
2013-11-05 21:02:00,24.0,22.3,30.23,SSW,198,0.0,12.0,93,0.00,,CLR,0.11,0.00,VWS V14.01,2013-11-06 04:02:00,
2013-11-05 21:07:00,24.0,22.5,30.23,SSW,196,2.0,3.0,94,0.00,,CLR,0.11,0.00,VWS V14.01,2013-11-06 04:07:00,
2013-11-05 21:12:00,24.0,22.3,30.23,South,191,4.0,7.0,93,0.00,,CLR,0.11,0.00,VWS V14.01,2013-11-06 04:12:00,
2013-11-05 21:17:00,24.0,22.3,30.23,SSW,195,4.0,7.0,93,0.00,,CLR,0.11,0.00,VWS V14.01,2013-11-06 04:17:00,
2013-11-05 21:22:00,24.1,22.4,30.23,SSE,165,1.0,10.0,93,0.00,,CLR,0.11,0.00,VWS V14.01,2013-11-06 04:22:00,
2013-11-05 21:27:00,24.1,22.6,30.23,SSW,202,5.0,10.0,94,0.00,,CLR,0.11,0.00,VWS V14.01,2013-11-06 04:27:00,
2013-11-05 21:30:00,23.5,21.8,30.23,ENE,57,1.0,10.0,93,0.00,,OVC041,0.11,0.00,VWS V14.01,2013-11-06 04:30:00,
2013-11-05 21:32:00,23.8,22.1,30.23,NNW,329,2.0,10.0,93,0.00,,FEW005,0.11,0.00,VWS V14.01,2013-11-06 04:32:00,
2013-11-05 21:37:00,23.2,21.5,30.23,East,80,3.0,4.0,93,0.00,,FEW005,0.11,0.00,VWS V14.01,2013-11-06 04:37:00,
2013-11-05 21:42:00,23.1,21.4,30.23,East,101,0.0,5.0,93,0.00,,FEW005,0.11,0.00,VWS V14.01,2013-11-06 04:42:00,
2013-11-05 21:47:00,23.0,21.3,30.23,SSE,156,1.0,5.0,93,0.00,,FEW005,0.11,0.00,VWS V14.01,2013-11-06 04:47:00,
2013-11-05 21:52:00,22.6,20.9,30.23,South,187,0.0,5.0,93,0.00,,FEW005,0.11,0.00,VWS V14.01,2013-11-06 04:52:00,
2013-11-05 21:57:00,22.3,20.6,30.24,North,355,2.0,5.0,93,0.00,,FEW005,0.11,0.00,VWS V14.01,2013-11-06 04:57:00,
2013-11-05 22:00:00,21.6,19.9,30.24,NW,324,0.0,5.0,93,0.00,,OVC041,0.11,0.00,VWS V14.01,2013-11-06 05:00:00,
2013-11-05 22:01:00,21.9,20.2,30.24,NNE,19,0.0,5.0,93,0.00,,FEW005,0.11,0.00,VWS V14.01,2013-11-06 05:01:00,
2013-11-05 22:02:00,21.8,20.1,30.23,NNE,29,2.0,5.0,93,0.00,,FEW005,0.11,0.00,VWS V14.01,2013-11-06 05:02:00,
2013-11-05 22:07:00,21.4,19.7,30.23,NNW,347,2.0,4.0,93,0.00,,FEW005,0.11,0.00,VWS V14.01,2013-11-06 05:07:00,
2013-11-05 22:12:00,21.0,19.3,30.23,NW,314,1.0,5.0,93,0.00,,FEW005,0.11,0.00,VWS V14.01,2013-11-06 05:12:00,
2013-11-05 22:17:00,20.6,18.9,30.23,NW,311,3.0,6.0,93,0.00,,FEW005,0.11,0.00,VWS V14.01,2013-11-06 05:17:00,
2013-11-05 22:22:00,20.5,18.8,30.23,WNW,303,0.0,6.0,93,0.00,,FEW005,0.11,0.00,VWS V14.01,2013-11-06 05:22:00,
2013-11-05 22:27:00,20.3,18.6,30.24,NW,323,1.0,6.0,93,0.00,,FEW005,0.11,0.00,VWS V14.01,2013-11-06 05:27:00,
2013-11-05 22:30:00,20.1,18.4,30.23,West,269,0.0,6.0,93,0.00,,OVC041,0.11,0.00,VWS V14.01,2013-11-06 05:30:00,
2013-11-05 22:32:00,20.0,18.5,30.23,WSW,254,0.0,6.0,94,0.00,,CLR,0.11,0.00,VWS V14.01,2013-11-06 05:32:00,
2013-11-05 22:37:00,20.3,18.9,30.23,West,268,7.0,7.0,94,0.00,,CLR,0.11,0.00,VWS V14.01,2013-11-06 05:37:00,
2013-11-05 22:42:00,21.4,19.9,30.22,SW,225,5.0,9.0,94,0.00,,CLR,0.11,0.00,VWS V14.01,2013-11-06 05:42:00,
2013-11-05 22:47:00,21.8,20.3,30.23,SW,224,0.0,9.0,94,0.00,,CLR,0.11,0.00,VWS V14.01,2013-11-06 05:47:00,
2013-11-05 22:52:00,21.3,19.6,30.23,SW,223,1.0,9.0,93,0.00,,CLR,0.11,0.00,VWS V14.01,2013-11-06 05:52:00,
2013-11-05 22:57:00,21.4,19.7,30.22,SW,217,0.0,9.0,93,0.00,,CLR,0.11,0.00,VWS V14.01,2013-11-06 05:57:00,
2013-11-05 23:00:00,21.4,19.7,30.22,SW,233,1.0,9.0,93,0.00,,OVC041,0.11,0.00,VWS V14.01,2013-11-06 06:00:00,
2013-11-05 23:02:00,21.5,19.8,30.22,WSW,237,0.0,9.0,93,0.00,,,0.11,0.00,VWS V14.01,2013-11-06 06:02:00,
2013-11-05 23:07:00,21.2,19.5,30.22,SSW,207,3.0,6.0,93,0.00,,,0.11,0.00,VWS V14.01,2013-11-06 06:07:00,
2013-11-05 23:12:00,21.0,19.3,30.22,SSW,194,2.0,6.0,93,0.00,,,0.11,0.00,VWS V14.01,2013-11-06 06:12:00,
2013-11-05 23:17:00,21.2,19.5,30.22,SW,218,0.0,6.0,93,0.00,,,0.11,0.00,VWS V14.01,2013-11-06 06:17:00,
2013-11-05 23:22:00,21.3,19.6,30.22,West,265,0.0,6.0,93,0.00,,,0.11,0.00,VWS V14.01,2013-11-06 06:22:00,
2013-11-05 23:27:00,21.0,19.0,30.22,SW,236,0.0,6.0,92,0.00,,,0.11,0.00,VWS V14.01,2013-11-06 06:27:00,
2013-11-05 23:30:00,21.0,19.0,30.22,WSW,246,1.0,6.0,92,0.00,,OVC041,0.11,0.00,VWS V14.01,2013-11-06 06:30:00,
2013-11-05 23:32:00,21.2,19.2,30.22,West,267,2.0,6.0,92,0.00,,,0.11,0.00,VWS V14.01,2013-11-06 06:32:00,
2013-11-05 23:37:00,20.9,18.7,30.22,SW,235,0.0,3.0,91,0.00,,,0.11,0.00,VWS V14.01,2013-11-06 06:37:00,
2013-11-05 23:42:00,20.5,18.3,30.22,SW,227,0.0,3.0,91,0.00,,,0.11,0.00,VWS V14.01,2013-11-06 06:42:00,
2013-11-05 23:47:00,20.8,18.3,30.22,SW,225,0.0,3.0,90,0.00,,,0.11,0.00,VWS V14.01,2013-11-06 06:47:00,
2013-11-05 23:52:00,21.0,18.5,30.22,SSW,213,2.0,5.0,90,0.00,,,0.11,0.00,VWS V14.01,2013-11-06 06:52:00,
2013-11-05 23:57:00,20.0,17.3,30.22,SSW,203,6.0,7.0,89,0.00,,,0.11,0.00,VWS V14.01,2013-11-06 06:57:00,